Kuiper-00186

operational
NORAD ID: 67140 Int'l Des: 2025-301 Owner: KUIP Country: US Constellation: kuiper
LEOCIRCULAR

Kuiper-00186について

説明を読み込み中...

リアルタイム位置

3D地球を読み込み中...

次回通過

高度履歴

Altitude vs Time

uPlot chart will show altitude changes over time

軌道要素

1 67140U 25301H 26034.50002314 -.01192170 00000-0 -69301-1 0 9992
2 67140 51.8777 231.7462 0007845 263.9357 29.3344 15.14612657 5579
Epoch: Feb 3, 2026 • Age: 6 hours

現在のステータス

高度 532.4 km
速度 7.60 km/s
衛星直下点 -37.56°S, 143.56°E
打ち上げ日 Dec 16, 2025
運用期間 0.1 years
タイプ internet

技術仕様

分類 Payload
質量 490.00 kg
乾燥質量 490.00 kg
総質量 490.00 kg
長さ 1.80 m
直径 0.70 m
スパン 5.00 m
形状 Box + 2 pan
製造者 KUIP
バスタイプ Kuiper
フェーズステータス In Orbit
所有者/国 KUIP/US

大規模コンステレーション

Loading constellations...